Regional Weather Roundup
Issued by NWS Goodland, KS

Home | Current Version | Previous Version | Graphics & Text | Print | Product List | Glossary On
Versions: 1 2 3 4 5 6 7 8 9 10 11 12 13 14 15 16 17 18 19 20 21 22 23 24 25 26 27 28 29 30 31 32 33 34 35 36 37 38 39 40 41 42 43 44 45 46 47 48 49 50
000
ASUS43 KGLD 051008
RWRGLD

GOODLAND FORECAST AREA HOURLY WEATHER ROUNDUP
NATIONAL WEATHER SERVICE GOODLAND KS
400 AM MDT THU MAY 05 2016

...OFFICIAL OBSERVATIONS...

CITY           SKY/WX    TMP DP  RH WIND       PRES   REMARKS
GOODLAND KS    CLEAR     52  42  69 SW12      30.10S
HILL CITY KS   CLEAR     43  40  89 W3        30.10S
IMPERIAL NEB   CLEAR     47  41  80 CALM      30.09S
MCCOOK NEB     CLEAR     44  40  85 CALM      30.09S
AKRON CO       CLEAR     53  40  61 S12       30.10F
BURLINGTON CO  CLEAR     47  40  76 SW10      30.12S
LIMON CO       CLOUDY    36  35  96 N6        30.16F
$$

...UNOFFICIAL OBSERVATIONS...

CITY           SKY/WX    TMP DP  RH WIND       PRES   REMARKS
COLBY KS       CLEAR     45  45 100 SW6       30.11S
LENORA KS        N/A     51  32  48 MISG        N/A
NORTON KS      CLEAR     45  37  76 CALM      30.09S
SHARON SPRINGS   N/A     50  44  80 S9          N/A
KIT CARSON CO    N/A     46  39  77 MISG        N/A
YUMA CO          N/A     45  40  84 CALM        N/A
$$



USA.gov is the U.S. government's official web portal to all federal, state and local government web resources and services.